{"data":{"norad_id":68492,"epoch":"2026-05-24T20:38:48.758784Z","epoch_age_seconds":97774,"freshness":"FRESH","line1":"1 68492U 26067CE  26144.86028656  .00004182  00000+0  42413-3 0  9999","line2":"2 68492  97.7551 103.4106 0005003 115.8352 244.3383 14.91409812  8243","mean_motion":14.91409812,"eccentricity":0.0005003,"inclination_deg":97.7551,"raan_deg":103.4106,"arg_perigee_deg":115.8352,"mean_anomaly_deg":244.3383,"bstar":0.00042413,"rev_number":824,"period_min":96.55293859633,"perigee_km":590.05077718432,"apogee_km":597.02663589628,"semimajor_km":6971.6757065403,"source":"CELESTRAK","updated_at":"2026-05-25T13:38:07.876114Z"}}